Simultaneous Nadir Overpasses (SNOs) Predictions

Prediction of SNOs between AQUA and METOP-B Satellite Orbit:

Table of predicted SNOs for the next 14.0 days since TLE Epoch: 3/1/2019
Index Date (AQUA) Time (AQUA) Lat,Lon (AQUA) SZA (AQUA ) Date (METOP-B) Time (METOP-B) Lat,Lon (METOP-B) SZA (METOP-B ) Distance(km) Time Diff (sec)
1 03/02/2019 08:18:28 73.82, 49.66 81.18 03/02/2019 08:17:18 73.81, 49.65 81.19 0.46 70
2 03/02/2019 09:07:56 -73.91,-142.91 98.73 03/02/2019 09:07:58 -73.90,-142.82 98.75 3.26 2
3 03/02/2019 09:57:24 73.97, 24.60 81.32 03/02/2019 09:58:37 73.94, 24.62 81.28 2.66 73
4 03/05/2019 03:52:44 73.82, 116.10 80.09 03/05/2019 03:51:42 73.82, 116.06 80.11 1.07 62
5 03/05/2019 04:42:12 -73.91, -76.47 99.83 03/05/2019 04:42:22 -73.90, -76.41 99.83 1.94 10
6 03/05/2019 05:31:45 74.23, 90.45 80.51 03/05/2019 05:32:55 74.24, 91.77 80.46 40.17 70
7 03/07/2019 23:27:00 73.82,-177.47 79.00 03/07/2019 23:26:06 73.82,-177.53 79.01 1.64 54
8 03/08/2019 00:16:28 -73.91, -10.03 100.92 03/08/2019 00:16:46 -73.91, -9.99 100.93 1.04 18
9 03/08/2019 01:06:07 74.54, 156.14 79.76 03/08/2019 01:07:13 74.54, 158.95 79.63 83.32 66
10 03/10/2019 19:01:15 73.83,-111.05 77.90 03/10/2019 19:00:29 73.82,-111.12 77.91 2.22 46
11 03/10/2019 19:50:43 -73.91, 56.41 102.03 03/10/2019 19:51:09 -73.91, 56.42 102.04 0.60 26
12 03/13/2019 14:35:31 73.84, -44.63 76.80 03/13/2019 14:34:53 73.82, -44.71 76.79 3.10 38
13 03/13/2019 15:24:59 -73.92, 122.83 103.13 03/13/2019 15:25:33 -73.91, 122.82 103.15 1.36 34




NCC Satellite Simultaneous Nadir Overpasses (SNOs) Prediction Service
